Location: Centreville
(38.8333°N, 77.4295°W)
Time: 05:27:41
(UTC-04:00)

ISS - Visible Passes

Search period start: 18 July 2019 00:00
Search period end: 28 July 2019 00:00
Orbit: 409 x 418 km, 51.6° (Epoch: 18 July)

Date Brightness Start Highest point End Pass type
(mag) Time Alt. Az. Time Alt. Az. Time Alt. Az.
18 Jul -0.2 00:06:52 10° NW 00:08:16 12° NNW 00:09:40 10° N visible
18 Jul -1.2 03:21:10 10° NNW 03:23:52 22° NNE 03:26:32 10° E visible
18 Jul -3.6 04:57:29 10° WNW 05:00:41 47° SW 05:03:52 10° SSE visible
18 Jul -3.6 21:38:12 10° SW 21:41:32 74° NW 21:44:52 10° NE visible
18 Jul -0.5 23:16:38 10° WNW 23:18:42 15° NNW 23:20:45 10° NNE visible
19 Jul -0.7 02:32:08 10° NNW 02:34:21 16° NNE 02:36:33 10° ENE visible
19 Jul -3.9 04:08:06 10° NW 04:11:26 89° NE 04:14:44 10° SE visible
19 Jul -1.0 22:26:35 10° WNW 22:29:10 20° NNW 22:31:45 10° NNE visible
20 Jul -0.4 01:43:11 10° NNW 01:44:46 13° NNE 01:46:00 11° NE visible
20 Jul-0.603:26:33ESE03:26:33ESE03:18:32NWvisible
20 Jul -1.8 04:59:58 13° SSW 04:59:58 13° SSW 05:00:37 10° S visible
20 Jul -1.6 21:36:42 10° W 21:39:41 29° NNW 21:42:40 10° NNE visible
20 Jul -0.2 23:16:25 10° NNW 23:17:12 11° N 23:18:01 10° N visible
21 Jul -0.3 00:54:21 10° N 00:55:09 11° N 00:55:56 10° NNE visible
21 Jul -0.5 22:25:57 10° NW 22:27:34 13° NNW 22:29:11 10° NNE visible
22 Jul -0.7 21:35:44 10° WNW 21:37:58 16° NNW 21:40:11 10° NNE visible
23 Jul -0.4 00:51:33 10° NNW 00:52:16 13° N 00:52:16 13° N visible
24 Jul -0.6 00:02:34 10° N 00:03:59 12° NNE 00:04:13 12° NNE visible
24 Jul -0.5 21:35:18 10° NNW 21:36:22 11° NNW 21:37:26 10° N visible
24 Jul -0.5 23:13:48 10° N 23:14:18 10° N 23:14:48 10° NNE visible
25 Jul -0.3 00:48:59 10° NNW 00:49:02 10° NNW 00:49:02 10° NNW visible
25 Jul -0.7 23:59:52 10° NNW 00:01:07 16° N 00:01:07 16° N visible
26 Jul -1.0 23:10:47 10° NNW 23:12:42 14° NNE 23:13:13 14° NNE visible
27 Jul -0.8 22:21:47 10° N 22:23:00 12° NNE 22:24:13 10° NE visible
